This is the latest recevied weather packets stored in our database for station/object IU4KCH-20. If no packets are shown the sender has not sent any weather packets the latest 10 day(s).
| Time | Temp. | Humidity | Pressure | Rain* | Wind** | Luminosity | Snow |
|---|---|---|---|---|---|---|---|
| 1777951083 | 17.22° C | 62% | 1010.3 hPa | - | - | - | - |
| 1777950181 | 17.22° C | 61% | 1010.4 hPa | - | - | - | - |
| 1777948386 | 16.67° C | 61% | 1010.7 hPa | - | - | - | - |
| 1777947472 | 16.67° C | 60% | 1010.7 hPa | - | - | - | - |
| 1777945667 | 17.22° C | 59% | 1010.9 hPa | - | - | - | - |
| 1777944765 | 16.67° C | 59% | 1011 hPa | - | - | - | - |
| 1777943863 | 16.67° C | 59% | 1011 hPa | - | - | - | - |
| 1777942961 | 16.67° C | 59% | 1011.2 hPa | - | - | - | - |
| 1777942060 | 17.22° C | 58% | 1011.5 hPa | - | - | - | - |
| 1777941160 | 17.22° C | 59% | 1011.6 hPa | - | - | - | - |
| 1777940253 | 17.22° C | 58% | 1011.8 hPa | - | - | - | - |
| 1777939351 | 17.78° C | 56% | 1012 hPa | - | - | - | - |
| 1777938450 | 17.22° C | 56% | 1012 hPa | - | - | - | - |
| 1777936647 | 17.78° C | 56% | 1012.4 hPa | - | - | - | - |
| 1777935746 | 17.78° C | 55% | 1012.7 hPa | - | - | - | - |
| 1777934844 | 18.33° C | 54% | 1013 hPa | - | - | - | - |
| 1777933042 | 18.33° C | 54% | 1012.8 hPa | - | - | - | - |
| 1777932141 | 18.33° C | 55% | 1012.8 hPa | - | - | - | - |
| 1777931240 | 18.33° C | 57% | 1012.8 hPa | - | - | - | - |
| 1777930338 | 18.33° C | 57% | 1013 hPa | - | - | - | - |
| 1777929432 | 18.89° C | 56% | 1013.1 hPa | - | - | - | - |
| 1777928530 | 18.89° C | 56% | 1013 hPa | - | - | - | - |
| 1777927629 | 18.89° C | 54% | 1013 hPa | - | - | - | - |
| 1777926727 | 19.44° C | 51% | 1012.9 hPa | - | - | - | - |
| 1777925824 | 19.44° C | 49% | 1012.9 hPa | - | - | - | - |
* Rain since midnight (hover to see other rain measurements)
** Current wind speed in m/s (hover to see current wind gust speed)